TOPSWRTT 000
TTAA00 KICT 021412

Wichita AWIPS Roundup
National Weather Service Wichita KS
900 AM CDT THU OCT 02 2014

....Central Kansas....
  
CITY           SKY/WX    TMP DP  RH WIND       PRES   REMARKS
RUSSELL        TSTM      54  53  97 NW15G22   29.88R                  
SALINA         PTSUNNY   62  54  74 N18       29.80F                  
GREAT BEND     CLOUDY    57  50  77 N17G26    29.87R                  
ELLSWORTH      SUNNY     61  55  82 N17G24    29.80F                  
MCPHERSON      CLOUDY    63  55  77 N18       29.79S                  
HAYS           CLOUDY    54  46  76 N20G26    29.90R                  

....South Central Kansas....
  
CITY           SKY/WX    TMP DP  RH WIND       PRES   REMARKS
HUTCHINSON     CLOUDY    62  55  77 N13       29.80S                  
NEWTON         CLOUDY    61  54  77 N21G28    29.80R                  
KINGMAN        PTSUNNY   64  57  77 N15       29.80S                  
WICHITA (ICT)  RAIN      65  62  90 N25G32    29.76R FOG              
JABARA ARPT    HVY RAIN  64  64 100 NW22G29   29.78R FOG              
MCCONNELL AFB  TSTM      66  66 100 N14       29.77F FOG              
EL DORADO      CLOUDY    72  68  88 CALM      29.72F                  
HARPER           N/A     63  57  82 N15G25    29.82R                  
WELLINGTON     RAIN      68  66  94 NW16      29.76S                  
WINFIELD       CLOUDY    71  67  87 S7        29.74R                  
 
....Southeast Kansas....
  
CITY           SKY/WX    TMP DP  RH WIND       PRES   REMARKS
EUREKA         CLOUDY    72  68  88 S5        29.70F                  
CHANUTE        PTSUNNY   71  67  87 SE8       29.72F                  
PARSONS        LGT RAIN  73  71  93 S6        29.75R                  
COFFEYVILLE    PTSUNNY   73  71  93 S12       29.73F                  
INDEPENDENCE   CLOUDY    70  68  94 SE9       29.73S                  
FORT SCOTT     MOSUNNY   70  68  94 SE7       29.73F                  
PITTSBURG      CLOUDY    69  69 100 S7        29.75F                  

....Western Kansas....
  
CITY           SKY/WX    TMP DP  RH WIND       PRES   REMARKS
GOODLAND       MOSUNNY   46  44  93 NW16      30.08R                  
HILL CITY      PTSUNNY   54  50  86 NW16      29.97S                  
LIBERAL        CLOUDY    52  45  76 NW20G28   29.98R                  
GARDEN CITY    CLOUDY    51  48  89 N22       29.98R                  
DODGE CITY     CLOUDY    54  49  83 N23G31    29.92S                  
PRATT          CLOUDY    59  52  77 N17       29.87R THUNDER          
MEDICINE LODGE   N/A     64  54  69 N17G26    29.82R                  

....Northeast Kansas....
  
CITY           SKY/WX    TMP DP  RH WIND       PRES   REMARKS
CONCORDIA      LGT RAIN  56  55  97 N14       29.86R                  
TOPEKA         CLOUDY    68  67  96 W3        29.73F FOG              
MANHATTAN      LGT RAIN  63  59  87 NW12G22   29.80R                  
LAWRENCE       TSTM      66  65  96 SE7       29.74S FOG              
OLATHE         CLOUDY    67  65  93 SE15      29.72F THUNDER          
EMPORIA        LGT RAIN  71  69  93 S10       29.72F FOG              

....Oklahoma....
  
CITY           SKY/WX    TMP DP  RH WIND       PRES   REMARKS
GAGE           MOSUNNY   60  51  72 N17G33    29.89R                  
PONCA CITY     SUNNY     75  66  73 VRB7      29.71S                  
BARTLESVILLE   PTSUNNY   70  69  97 S6        29.74S THUNDER          
TULSA          PTSUNNY   74  71  91 S14       29.72F                  
OKLAHOMA CITY  MOSUNNY   75  68  78 S13       29.74S                  

Note: "fair" indicates few or no clouds below 12,000 feet with no
significant weather and/or obstructions to visibility.
  

USA.gov is the U.S. government's official web portal to all federal, state and local government web resources and services.